Regional Weather Roundup
Issued by NWS Wakefield, VA

Home | Current Version | Previous Version | Text Only | Print | Product List | Glossary Off
Versions: 1 2 3 4 5 6 7 8 9 10 11 12 13 14 15 16 17 18 19 20 21 22 23 24 25 26 27 28 29 30 31 32 33 34 35 36 37 38 39 40 41 42 43 44 45 46 47 48 49 50

000
ASUS41 KAKQ 170615
RWRAKQ

REGIONAL WEATHER ROUNDUP
NATIONAL WEATHER SERVICE WAKEFIELD VA
100 AM EST TUE JAN 17 2017

Note: "fair" indicates few or no clouds below 12,000 feet with no
significant weather and/or obstructions to visibility. * = Denotes
station may not report precipitation (e.g., rain,snow,etc.),
thunder or fog.

VAZ042-051-052>054-056-170700-
NORTHERN VIRGINIA

CITY           SKY/WX    TMP DP  RH WIND       PRES   REMARKS
WASH NATIONAL  LGT RAIN  41  39  93 S5        30.28F
DULLES         CLOUDY    40  37  89 S3        30.26F
FORT BELVOIR   LGT RAIN  39  37  93 CALM      30.27F
QUANTICO       CLOUDY    41  39  93 SW5       30.29F
FREDERICKSBRG* MOCLDY    41  39  93 CALM      30.27F
STAFFORD*      MOCLDY    40  38  93 CALM      30.31F
WARRENTON      CLOUDY    42  39  88 CALM      30.25F
CULPEPER*      CLOUDY    43  41  95 CALM      30.27S
MANASSAS*      NOT AVBL
LEESBURG*      CLOUDY    43  41  93 MISG      30.27S
WINCHESTER     CLOUDY    37  36  93 CALM      30.22F
FRONT ROYAL*   FAIR      37  37 100 CALM      30.21F
LURAY*         FAIR      45  43  93 SW5       30.21F
$$

VAZ048-049-060>072-079>083-170700-
CENTRAL AND SOUTH CENTRAL VIRGINIA

CITY           SKY/WX    TMP DP  RH WIND       PRES   REMARKS
RICHMOND       CLOUDY    42  41  96 S6        30.29S
CHESTERFIELD*  CLOUDY    43  27  52 S6        30.29F
PETERSBURG*    CLOUDY    43  39  87 CALM      30.30F FOG
HANOVER        MOCLDY    41  38  89 VRB5      30.29F
TAPPAHANNOCK*  CLOUDY    43  32  65 S3        30.29F
QUINTON*       CLOUDY    42  41  97 MISG      30.29F
CHARLOTTSVILLE MOCLDY    42  40  92 S5        30.23F
GORDONSVILLE*  CLOUDY    41  41 100 S3        30.24F FOG
ORANGE*          N/A     41  41 100 CALM      30.26F
LOUISA*        MOCLDY    43  43 100 S3        30.24F
BUMPASS*       FAIR      39  39 100 CALM      30.26F
FARMVILLE*     MOCLDY    38  38 100 CALM      30.26F FOG
CREWE*         FAIR      39  39 100 CALM      30.27F
FORT PICKETT*  FAIR      40  37  89 S5        30.27F
CHASE CITY*    FAIR      39  38  95 CALM      30.28F
CLARKSVILLE*   FAIR      41  41 100 SW3       30.28F
SOUTH HILL*    CLOUDY    43  41  94 S3        30.34F
LAWRENCEVILLE* CLOUDY    43  41  92 MISG      30.28F
EMPORIA*       CLOUDY    43  41  93 CALM      30.31F
$$

VAZ088>098-170700-
SOUTHEAST VIRGINIA

CITY           SKY/WX    TMP DP  RH WIND       PRES   REMARKS
NORFOLK        CLOUDY    44  40  85 CALM      30.30F
VIRGINIA BEACH CLOUDY    43  39  86 CALM      30.29F
NORFOLK NAVAL  CLOUDY    44  39  82 CALM      30.31F
WEST POINT*    CLOUDY    43  37  79 S3        30.31F
SALUDA*        CLOUDY    42  37  84 S3        30.29F
NEWPORT NEWS   CLOUDY    44  38  79 CALM      30.30F
LANGLEY AFB    CLOUDY    43  39  86 CALM      30.30F
FORT EUSTIS    CLOUDY    43  37  79 CALM      30.28F
WILLIAMSBURG*  CLOUDY    45  39  81 CALM      30.32S
HR EXEC AP*    CLOUDY    45  37  76 CALM      30.29F
FRANKLIN*      CLOUDY    44  41  89 CALM      30.30F
US460-WAKEFLD  CLOUDY    43  40  89 CALM      30.31F
$$

VAZ020-022-025-037-045-170700-
WEST CENTRAL AND SOUTHWEST VIRGINIA

CITY           SKY/WX    TMP DP  RH WIND       PRES   REMARKS
STAUNTON*      PTCLDY    41  39  92 SE3       30.23F
WAYNESBORO*    FAIR      40  39  96 CALM      30.22F
HOT SPRINGS VA CLOUDY    50  46  87 SW14      30.18F
LYNCHBURG      CLOUDY    40  37  89 SW3       30.26F
DANVILLE       CLOUDY    44  40  85 S5        30.27F
SOUTH BOSTON*  CLOUDY    38  37  95 CALM      30.28S
MARTINSVILLE   CLOUDY    47  44  87 S3        30.28S
ROANOKE        FOG       42  41  96 CALM      30.27S VSB 1/4
BLACKSBURG     FOG       43  43 100 CALM      30.26S VSB 1/2
DUBLIN*        FOG       45  45 100 CALM      30.24F VSB 1/4
MARION*        FOG       46  45  96 E6        30.25S VSB 1/4
HILLSVILLE*    PTCLDY    45  45 100 S5        30.21F
RICHLANDS*     MOCLDY   N/A N/A N/A S6        30.18F
WISE*          CLOUDY    55  46  71 S10       30.18F
ABINGDON*      CLOUDY    51  49  93 CALM      30.19S
$$

MDZ021>025-VAZ099-100-170700-
SOUTHERN MARYLAND AND THE DELMARVA PENINSULA

CITY           SKY/WX    TMP DP  RH WIND       PRES   REMARKS
PATUXENT RIVER CLOUDY    42  33  70 SE3       30.28F
BAY BRIDGE APT LGT RAIN  39  36  87 S7        30.27F
LEONARDTOWN    CLOUDY    41  32  70 CALM      30.29F
DOVER          CLOUDY    38  35  90 S3        30.27F
GEORGETOWN     CLOUDY    42  33  70 SW6       30.30F
EASTON         RAIN      41  36  83 CALM      30.32F
CAMBRIDGE      CLOUDY    39  34  81 SE5       30.28F
SALISBURY      CLOUDY    41  34  76 CALM      30.30F
OCEAN CITY     CLOUDY    42  35  76 CALM      30.31F
WALLOPS ISLAND CLOUDY    42  38  85 CALM      30.30F
ACCOMACK*      CLOUDY    43  38  85 CALM      30.30F
$$

NCZ012>017-030>032-170700-
NORTH CENTRAL AND EASTERN NORTH CAROLINA

CITY           SKY/WX    TMP DP  RH WIND       PRES   REMARKS
ROANOKE RAPIDS CLOUDY    45  43  93 CALM      30.30F
RALEIGH        CLOUDY    48  41  76 SW7       30.30F
ELIZABETH CITY CLOUDY    38  36  92 CALM      30.31F
AHOSKIE*         N/A     44  40  87 CALM      30.31F
EDENTON*       CLOUDY    43  40  92 CALM      30.32S
CURRITUCK*     CLOUDY    40  40 100 CALM      30.31F
KILL DEVIL HLS NOT AVBL
MANTEO         CLOUDY    40  39  95 N3        30.30F
CAPE HATTERAS  MOCLDY    47  43  86 N5        30.29F
TARBORO*       NOT AVBL
GOLDSBORO      CLOUDY    50  47  88 CALM      30.27F
WASHINGTON     CLOUDY    45  40  82 CALM      30.31F
GREENVILLE     CLOUDY    46  45  93 CALM      30.31F
NEW BERN       CLOUDY    46  43  89 CALM      30.31F
WILMINGTON     CLOUDY    51  48  89 NE3       30.29F
$$

VAZ048-170700-
ELSEWHERE

CITY           SKY/WX    TMP DP  RH WIND       PRES   REMARKS
HARRISBURG PA  CLOUDY    36  30  79 CALM      30.26F
BALTIMORE      CLOUDY    40  32  73 SE5       30.26F
ANNAPOLIS      LGT RAIN  41  36  82 S5        30.26F
ANDREWS AFB    CLOUDY    39  37  93 CALM      30.26F
PHILADELPHIA   CLOUDY    39  28  64 CALM      30.30F
HENDERSON NC   PTCLDY    41  37  86 CALM      30.28F
GREENSBORO     CLOUDY    46  43  89 SW7       30.27F
ROCKY MOUNT    CLOUDY    47  44  90 CALM      30.30F
$$

VAZ100-170700-
MARINE

STATION/POSITION TIME  TEMP    WIND        PRES    WAVE   SWELL
                       AIR SEA DIR/SP/G            HT/PER HT/PER
                 (UTC) (F)     (DEG/KT/KT) (MB)    (FT/S) (FT/S)
CAPE MAY NJ      0536          200/  4/  5   N/A
LEWES DE         0536          230/  2/  3   N/A
OCEAN-CITY-INLET 0536          210/  2/  2   N/A
WACHAPREAGUE VA  0536           30/  2/  3   N/A
THOMAS POINT MD  0600   39 38  160/  8/  9   N/A
GOOSES REEF MD   0600   40     150/  6/  8 1025.9    0
COVE POINT MD    0536          180/  7/  7   N/A
SOLOMONS ISLAND  0536          150/  3/  5   N/A
BISHOPS HEAD MD  0536          110/  2/  3   N/A
PINEY POINT MD   0536          160/  6/  6   N/A
POTOMAC MD       0600   41 40  190/  4/  4 1024.7    0
CAMBRIDGE MD     0536          180/  3/  4   N/A
LEWISETTA VA     0536          180/  4/  4   N/A
RAPPAHANNOCK LGT 0536             CALM       N/A
STINGRAY PT      0550   40     170/  2/  2 1026.4F
YORK RVR RNG VA  0536          160/  3/  3   N/A
YORKTOWN VA      0536           90/  2/  3   N/A
JAMESTOWN VA     0600   42 43  170/  2/  2   N/A     0
DOMINION TERM VA 0536           CALM  /  1   N/A
KIPTOPEKE VA     0530      42   CALM  /  1   N/A
CHES BAY BRIDGE  0536           CALM  /  2   N/A
CAPE HENRY VA    0536          300/  2/  3   N/A
WILLOUBY STN VA  0536           70/  2/  3   N/A
S CRANEY ISL VA  0536           CALM  /  1   N/A
CAPE HENRY BUOY  0542      47                N/A     2/10
OFFSHORE WE BUOY 0551      49                N/A     2/11
64NM E OF VA BCH 0550   54 58  360/  8/ 10 1025.2F   2/10   2/10
DUCK PIER NC     0536          330/  7/  8   N/A
44100 DUCK FRF   0535      46                N/A     2/10
44056 DUCK FRF   0530      44                N/A     2/ 9
OREGON INLET NC  0536          340/  4/  5   N/A
HATTERAS NC      0536          360/  7/  8   N/A
DIAMOND SHLS NC  0550   56 73  360/ 10/ 12 1025.2F   3/ 8   2/ 8
CAPE LOOKOUT NC  0500   49     360/  6/  7 1025.7F
$$



USA.gov is the U.S. government's official web portal to all federal, state and local government web resources and services.